Date,TemperatureHighF,TemperatureAvgF,TemperatureLowF,DewpointHighF,DewpointAvgF,DewpointLowF,HumidityHigh,HumidityAvg,HumidityLow,PressureMaxIn,PressureMinIn,WindSpeedMaxMPH,WindSpeedAvgMPH,GustSpeedMaxMPH,PrecipitationSumIn
2013-2-1,22.1,12.6,5.9,4.2,-3.7,-8.6,71,48,34,30.57,30.27,21,6,21,0.00
2013-2-2,32.2,24.4,15.8,22.1,15.0,1.4,81,67,52,30.44,30.14,14,5,14,0.01
2013-2-3,26.1,19.5,11.3,17.8,9.9,2.1,72,65,58,30.27,30.11,13,3,13,0.00
2013-2-4,41.4,27.6,15.3,33.8,19.4,7.6,88,71,51,30.25,29.95,16,4,16,0.02
2013-2-5,41.9,33.3,25.5,31.3,25.1,18.8,81,72,56,30.18,29.99,13,4,13,0.00
2013-2-6,37.0,31.9,26.1,28.2,23.2,18.8,82,70,62,30.41,30.18,9,3,9,0.00
2013-2-7,61.2,41.8,28.0,44.3,31.3,22.1,88,68,38,30.32,29.94,9,2,9,0.11
2013-2-8,47.3,35.6,28.9,45.2,28.9,22.0,93,76,68,30.49,29.96,22,7,22,0.05
2013-2-9,45.9,32.6,20.5,24.8,20.5,15.1,82,62,41,30.55,30.31,11,2,11,0.00
2013-2-10,51.6,43.1,31.1,48.4,33.7,20.2,94,70,52,30.97,29.89,26,7,26,0.05
2013-2-11,52.7,44.6,35.8,48.5,30.2,23.6,93,58,45,30.21,29.88,28,9,28,0.00
2013-2-12,52.2,38.0,25.5,29.7,23.1,16.9,78,57,27,30.29,30.07,9,3,9,0.00
2013-2-13,46.8,34.2,29.3,27.3,24.0,20.6,84,67,36,30.07,29.94,11,4,11,0.00
2013-2-14,55.0,41.4,30.7,35.6,30.8,23.5,86,68,42,30.17,29.96,20,6,20,0.00
2013-2-15,40.8,31.9,23.2,29.6,22.3,12.5,86,68,48,30.32,30.13,17,4,17,0.00
2013-2-16,29.5,23.3,17.4,14.5,9.4,3.4,75,56,40,30.29,30.23,20,5,20,0.00
2013-2-17,39.9,26.8,11.3,14.3,6.0,0.2,73,43,21,30.39,30.26,10,3,10,0.00
2013-2-18,62.8,42.5,23.9,42.2,25.6,7.4,87,52,29,30.30,29.77,28,10,28,0.35
2013-2-19,46.8,30.3,23.4,42.5,18.4,5.7,88,61,44,30.29,29.77,25,6,25,0.17
2013-2-20,30.0,22.8,16.3,12.5,5.8,-0.7,64,48,31,30.46,30.29,19,6,19,0.00
2013-2-21,35.8,27.2,16.3,26.0,16.0,6.4,83,63,46,30.47,30.16,20,4,20,0.00
2013-2-22,38.1,34.7,30.6,34.1,29.6,26.0,90,82,70,30.17,29.98,14,2,14,0.30
2013-2-23,45.0,33.6,25.0,26.4,20.4,14.7,73,59,41,30.15,30.06,12,4,12,0.01
2013-2-24,45.9,31.9,20.5,25.1,20.0,14.2,78,62,43,30.28,30.10,10,3,10,0.00
2013-2-25,51.1,36.1,22.1,27.0,22.1,15.6,77,58,35,30.30,30.01,13,4,13,0.00
2013-2-26,44.8,40.6,35.2,42.6,34.7,23.7,93,81,54,30.02,29.52,13,4,13,0.72
2013-2-27,42.3,36.1,33.3,37.8,31.0,25.9,91,82,74,29.87,29.64,18,6,18,0.05
2013-2-28,38.3,34.9,32.9,32.3,29.1,25.7,85,79,73,30.12,29.84,14,5,14,0.00